Pope Field Airport, NC

9:43 AM EST on November 19, 2017 (GMT -0500)
Pope Field Airport

Weather History for KPOB - September, 2013

Change the Weather History Date:

Sunday, September 8, 2013

  Actual Average Record
Temperature  
Mean Temperature 76 °F -  
Max Temperature 88 °F 84 °F 95 °F (1997)
Min Temperature 64 °F 66 °F 51 °F (1984)
Cooling Degree Days 11    
Growing Degree Days 26 (Base 50)    
Moisture  
Dew Point 63 °F    
Average Humidity 69    
Maximum Humidity 94    
Minimum Humidity 38    
Precipitation  
Precipitation 0.00 in - - ()
Sea Level Pressure  
Sea Level Pressure 29.97 in    
Wind  
Wind Speed 3 mph (NW)    
Max Wind Speed 8 mph    
Max Gust Speed -    
Visibility 10 miles    
Events      
Averages and records for this station are not official NWS values.
T = Trace of Precipitation, MM = Missing Value Source: NWS Daily Summary

Daily Weather History Graph

Daily Weather History Graph

Search for Another Location

Airport or City:

Trip Planner

Search our weather history database for the weather conditions in past years. The results will help you decide how hot, cold, wet, or windy it might be!

Date:

Astronomy

Sep. 08, 2013 Rise Set
Actual Time 6:53 AM EDT 7:32 PM EDT
Civil Twilight 6:28 AM EDT 7:58 PM EDT
Nautical Twilight 5:58 AM EDT 8:28 PM EDT
Astronomical Twilight 5:27 AM EDT 8:59 PM EDT
Moon 10:00 AM EDT (9/8) 9:17 PM EDT (9/8)
Length of Visible Light 13h 30m
Length of Day
12h 38m
Waxing Crescent, 11% of the Moon is Illuminated
Sep 8
Waxing Crescent
Sep 12
First Quarter
Sep 19
Full
Sep 26
Last Quarter
Oct 4
New

Hourly Weather History & Observations

Time (EDT) Temp. Heat Index Dew Point Humidity Pressure Visibility Wind Dir Wind Speed Gust Speed Precip Events Conditions
12:58 AM 65.1 °F - 62.8 °F 92% 30.00 in 10.0 mi Calm Calm - N/A   Clear
1:58 AM 64.4 °F - 62.8 °F 94% 30.00 in 10.0 mi Calm Calm - N/A   Clear
2:58 AM 64.8 °F - 62.1 °F 91% 29.99 in 10.0 mi North - - N/A   Scattered Clouds
3:58 AM 64.6 °F - 62.2 °F 92% 29.98 in 10.0 mi Calm Calm - N/A   Mostly Cloudy
4:58 AM 66.4 °F - 60.8 °F 82% 29.97 in 10.0 mi West 4.6 mph - N/A   Clear
5:58 AM 65.8 °F - 61.3 °F 85% 29.97 in 10.0 mi WSW 6.9 mph - N/A   Mostly Cloudy
6:58 AM 65.1 °F - 61.2 °F 87% 29.98 in 10.0 mi WSW 3.5 mph - N/A   Clear
7:58 AM 68.0 °F - 62.4 °F 82% 29.98 in 10.0 mi West 3.5 mph - N/A   Clear
8:58 AM 72.3 °F - 63.9 °F 75% 29.98 in 10.0 mi West 4.6 mph - N/A   Clear
9:58 AM 77.7 °F - 66.0 °F 67% 29.98 in 10.0 mi Variable 3.5 mph - N/A   Clear
10:58 AM 80.8 °F 82.5 °F 64.6 °F 58% 29.98 in 10.0 mi Variable 5.8 mph - N/A   Clear
11:58 AM 82.8 °F 83.3 °F 61.3 °F 48% 29.97 in 10.0 mi NW 3.5 mph - N/A   Clear
12:55 PM 84.9 °F 85.2 °F 61.3 °F 45% 29.95 in 10.0 mi Variable 5.8 mph - N/A   Clear
1:58 PM 86.2 °F 85.6 °F 59.0 °F 40% 29.95 in 10.0 mi Variable 3.5 mph - N/A   Clear
2:58 PM 88.2 °F 87.6 °F 59.5 °F 38% 29.93 in 10.0 mi West 8.1 mph - N/A   Clear
3:58 PM 88.2 °F 88.7 °F 62.2 °F 42% 29.91 in 10.0 mi West 5.8 mph - N/A   Clear
4:58 PM 88.0 °F 87.6 °F 60.3 °F 39% 29.91 in 10.0 mi NNE 6.9 mph - N/A   Clear
5:58 PM 86.4 °F 86.3 °F 60.6 °F 42% 29.93 in 10.0 mi NNE 6.9 mph - N/A   Clear
6:58 PM 83.5 °F 83.7 °F 60.4 °F 46% 29.94 in 10.0 mi East 3.5 mph - N/A   Clear
7:58 PM 75.2 °F - 66.0 °F 73% 29.95 in 10.0 mi NNE 2.3 mph - N/A   Clear
8:58 PM 72.3 °F - 66.4 °F 82% 29.96 in 10.0 mi NNE 1.2 mph - N/A   Clear
9:58 PM 70.7 °F - 66.7 °F 87% 29.98 in 10.0 mi Calm Calm - N/A   Clear
10:58 PM 68.5 °F - 66.2 °F 92% 30.00 in 10.0 mi NE 2.3 mph - N/A   Clear
11:58 PM 68.9 °F - 65.1 °F 88% 30.01 in 10.0 mi Calm Calm - N/A   Clear